GFSWCAN_925_rhum_288.txt.gz
RH
86 84 82 92 78 74 76 81 72 81 80 70 70 64 70 73 83 99 96 93 99 91 84 92 92 88 87 81 78 83 76 75 80 85 61 61 69 72 72 82 85 82 86 84 88 91 94 79 68 80 86 72 74 71
89 88 87 84 81 79 79 73 81 76 70 69 67 70 79 78 76 92 99 91 96 95 93 96 100 100 99 95 90 86 70 76 64 68 78 74 74 73 81 85 79 86 91 88 92 89 85 82 86 82 81 78 74 75
90 88 85 82 84 77 76 79 73 70 70 67 70 76 79 76 92 78 97 100 99 94 89 84 81 97 96 97 97 89 81 89 89 86 79 81 85 77 82 86 82 82 83 80 82 84 84 80 75 75 74 77 74 70
89 85 85 81 78 79 76 73 73 71 68 69 69 83 81 81 86 79 86 92 96 87 80 86 90 92 97 97 97 97 85 78 76 74 85 83 83 79 86 83 76 83 81 88 89 87 85 82 80 83 77 70 70 72
87 86 82 80 80 76 75 75 72 70 68 70 82 82 74 84 94 86 87 70 89 97 82 82 87 98 99 95 96 96 84 80 81 85 84 88 80 78 80 69 83 85 91 86 87 88 90 86 88 87 86 86 86 82
86 83 81 81 78 76 76 74 73 72 70 71 88 85 54 73 99 98 79 78 79 96 88 84 91 87 93 85 81 81 78 75 82 81 88 90 92 77 85 86 89 88 88 91 88 89 90 90 93 97 92 95 97 95
88 82 82 80 77 75 76 76 74 73 72 71 94 84 55 50 55 68 71 67 96 96 88 89 87 84 84 95 78 62 67 82 80 82 84 81 83 65 80 86 88 89 90 89 91 90 88 89 88 98 100 98 96 96
85 83 82 80 78 79 79 78 76 73 74 78 94 96 97 89 73 85 65 35 86 88 74 90 84 76 76 80 86 69 77 76 74 82 78 81 67 63 87 90 90 90 85 84 90 94 93 97 97 95 97 97 87 92
84 84 81 81 80 78 78 78 76 74 83 94 95 67 45 36 55 70 78 33 38 62 83 77 89 89 67 79 87 76 62 80 60 73 77 56 65 89 91 91 90 90 91 91 87 86 88 88 85 85 87 86 84 88
84 78 81 79 74 74 81 80 72 78 84 73 60 38 49 38 68 53 32 48 58 57 68 86 70 86 78 73 84 83 79 81 86 82 52 68 89 90 91 91 91 90 89 85 79 74 72 73 79 79 83 89 90 87
76 79 80 69 68 71 82 77 48 47 46 39 54 48 28 22 32 42 69 75 70 83 73 75 72 86 64 87 88 87 88 78 85 81 68 79 82 86 90 90 89 89 88 86 83 86 83 81 83 77 76 79 82 84
74 79 72 62 66 77 84 72 26 28 44 40 34 29 28 55 64 67 83 67 79 96 78 82 78 73 73 82 87 86 88 71 92 56 70 81 87 88 83 86 82 82 84 77 79 79 77 77 84 83 82 79 82 88
68 72 65 59 61 69 86 79 66 36 18 18 39 70 73 79 87 93 99 85 87 77 78 85 85 79 73 68 88 79 82 90 53 76 82 85 87 80 82 75 72 75 76 74 74 76 78 77 82 85 83 86 92 91
67 75 70 62 58 60 72 81 66 16 19 75 77 86 89 96 91 94 88 86 70 78 81 86 88 85 71 83 78 82 86 63 80 82 85 82 84 79 72 71 70 72 76 81 81 82 82 83 83 87 89 92 95 90
60 68 68 62 56 49 52 48 20 20 49 88 82 100 100 83 81 82 79 83 71 76 83 86 82 67 81 78 70 64 74 85 78 83 79 76 78 74 73 73 78 80 83 92 95 100 100 97 98 96 93 96 97 94
44 49 54 62 59 46 21 23 27 37 55 82 90 91 74 79 82 86 89 89 75 80 76 68 79 80 90 86 84 98 81 89 82 82 78 77 80 80 84 86 90 91 91 92 93 95 94 93 95 96 97 95 91 95
48 51 78 34 31 21 22 29 40 71 85 78 88 70 81 89 93 87 83 76 76 78 86 79 86 100 80 87 94 87 89 82 80 74 68 76 85 86 99 100 95 95 94 92 94 95 99 100 98 100 94 90 97 97
77 81 88 75 28 22 29 40 53 79 89 96 79 81 65 63 76 72 71 70 69 69 69 88 76 94 99 95 85 84 80 74 69 72 74 79 86 92 93 97 96 98 95 97 100 99 95 98 100 90 97 96 96 89
68 51 30 17 17 25 42 51 50 96 96 93 77 74 67 60 60 64 65 73 75 71 76 84 91 95 86 80 82 74 74 76 79 72 75 77 80 89 98 99 100 98 100 100 100 99 100 100 100 99 98 99 96 94
31 23 21 17 18 38 77 86 68 84 91 91 79 80 78 68 71 72 69 73 76 85 92 95 87 85 85 81 84 84 83 86 83 75 67 72 79 94 92 98 95 99 100 100 98 93 99 96 90 94 99 100 96 92
18 21 20 21 37 55 95 99 98 100 90 84 92 81 80 80 83 90 88 88 88 97 88 84 86 85 94 93 93 92 91 93 87 88 85 81 89 96 94 95 99 99 97 96 95 95 96 96 98 100 100 100 93 100
21 20 19 22 41 52 80 91 92 88 86 93 85 86 90 89 94 92 99 93 93 88 88 87 86 88 84 88 91 95 97 96 95 94 95 95 89 89 90 94 93 91 93 95 96 95 95 100 100 100 99 96 97 99
19 21 27 32 61 70 80 73 82 94 79 87 87 80 89 94 91 90 97 93 85 92 94 94 97 96 93 90 92 94 98 97 92 94 97 98 100 100 98 97 98 97 93 94 100 100 98 96 95 98 99 99 99 99
23 45 82 77 75 76 86 90 88 86 88 91 90 87 92 98 93 93 97 87 90 86 88 91 92 87 81 84 87 93 98 100 99 96 100 100 95 95 99 99 100 100 100 100 99 96 96 96 94 96 97 97 96 99
63 82 77 78 92 78 88 89 92 88 99 100 94 94 96 95 98 100 96 87 85 87 89 91 88 91 92 91 90 94 100 100 100 100 94 100 100 100 96 96 94 90 98 99 100 100 100 100 100 100 100 100 100 99
95 98 88 99 94 85 96 96 100 100 98 98 100 96 94 92 94 100 92 92 87 93 97 99 99 97 92 98 100 100 100 100 93 96 86 99 100 100 100 100 97 95 99 100 100 100 100 100 100 100 100 100 98 100
89 96 96 80 85 85 92 92 91 93 100 100 100 99 92 99 99 92 89 99 96 100 100 100 100 100 100 100 90 80 84 77 77 85 79 78 87 97 100 100 100 95 100 100 99 100 100 100 100 100 100 100 95 97
100 94 90 94 95 92 100 100 100 100 100 94 92 100 99 99 95 91 97 97 100 99 94 89 94 98 95 76 70 70 60 58 55 49 53 60 73 89 100 100 100 100 100 100 100 100 100 100 100 100 100 100 94 89
98 93 88 96 97 99 100 100 100 97 94 97 99 100 97 91 92 91 88 98 99 92 86 78 70 73 71 69 64 67 65 69 94 100 100 92 90 81 92 95 98 100 100 100 99 100 100 100 100 100 100 99 95 92
98 100 93 100 98 100 99 98 98 100 100 100 100 98 95 86 83 83 88 94 99 94 91 89 79 69 68 72 67 54 60 69 81 100 100 100 100 94 94 99 100 100 100 100 100 99 94 97 94 93 93 91 92 98
95 94 92 99 100 100 99 100 98 100 100 100 100 100 95 87 74 75 83 89 90 81 73 74 61 57 56 57 67 73 65 58 65 72 78 96 100 96 93 98 100 100 95 100 100 100 100 99 100 100 97 95 94 98
95 100 92 83 93 93 92 99 100 100 99 96 92 100 92 98 96 65 69 76 85 84 88 88 91 65 66 73 60 66 70 88 98 99 98 96 96 96 98 99 100 94 86 86 97 100 100 100 100 100 100 98 98 97
98 98 99 98 94 94 96 90 88 86 90 89 90 97 99 100 89 55 53 64 78 90 97 96 97 97 96 97 97 97 97 97 97 98 99 100 100 99 98 98 96 96 93 79 84 95 98 100 98 99 99 100 100 98

GFSWCAN_925_rhum_294.txt.gz
RH
89 86 90 88 84 82 83 78 78 86 77 72 72 70 72 84 84 82 80 86 99 98 89 83 86 92 90 81 91 84 80 72 82 92 88 71 92 94 85 93 97 92 100 97 84 98 99 90 80 90 96 94 81 81
89 91 86 82 85 82 79 82 77 74 75 72 71 74 86 79 82 76 86 90 88 96 97 96 96 93 95 98 91 80 84 80 92 95 90 88 88 77 88 100 82 96 100 100 100 99 97 95 96 94 91 93 90 87
90 87 85 83 81 83 79 76 78 76 72 72 71 78 74 76 93 62 85 95 99 83 97 96 90 95 85 98 97 98 87 96 94 96 96 93 94 88 96 100 98 95 95 96 96 96 96 95 83 76 82 90 77 68
89 86 83 84 82 79 79 78 74 75 74 69 74 83 78 87 75 90 83 94 94 86 91 94 82 90 93 94 97 97 91 96 89 83 94 92 92 72 99 93 88 96 94 98 100 96 96 94 90 91 84 71 72 73
86 86 85 82 80 78 78 79 76 73 72 73 82 81 82 87 92 65 56 51 87 98 95 93 80 78 92 88 94 96 96 95 94 93 94 98 94 84 91 83 95 98 100 100 100 99 99 99 97 92 96 96 92 95
87 86 84 82 81 82 78 77 76 74 74 74 84 80 79 95 96 90 96 62 62 96 97 93 76 73 69 86 90 93 95 91 92 94 96 97 96 97 96 98 98 97 96 97 100 97 98 93 90 94 100 98 96 89
87 84 84 83 80 80 79 78 76 74 74 87 86 84 78 78 58 68 75 67 89 94 94 92 91 64 61 91 72 86 78 88 88 94 96 96 95 76 95 99 98 96 96 97 95 96 98 96 100 91 96 91 90 92
83 86 78 79 77 77 79 77 76 76 81 94 86 84 80 77 72 77 62 59 73 69 68 94 81 75 58 83 95 75 91 86 78 95 91 92 76 75 98 99 97 95 89 89 90 95 96 94 89 86 84 89 94 96
84 75 76 75 77 83 79 77 74 89 98 97 70 48 34 41 60 69 50 44 45 59 92 82 93 94 59 66 91 85 78 88 67 85 85 58 73 99 100 98 97 97 98 99 90 87 88 96 94 81 82 79 93 93
74 73 74 76 82 80 74 73 81 90 96 66 44 28 48 35 49 37 38 55 62 56 77 91 63 91 72 68 88 90 92 92 98 91 56 83 100 98 98 97 98 96 96 94 96 90 92 89 89 90 84 80 84 86
74 73 75 79 83 78 65 69 83 73 49 40 35 42 32 39 35 42 80 81 75 89 73 70 68 88 59 96 96 96 97 91 97 89 77 94 100 99 92 92 79 75 71 81 71 76 78 73 82 85 83 75 73 75
73 72 75 79 84 79 60 60 50 30 42 42 35 41 40 56 73 77 87 72 86 97 81 86 77 71 74 76 96 91 96 84 100 66 83 98 100 93 91 90 73 63 65 68 66 70 72 70 74 72 76 77 76 75
70 67 71 74 82 86 70 58 48 41 27 21 40 74 80 84 85 88 97 92 97 86 84 89 91 79 78 67 94 88 89 100 58 88 98 100 96 86 90 70 66 62 63 69 70 71 74 72 74 74 77 77 76 77
69 64 60 67 66 76 77 62 21 14 19 83 80 88 89 94 92 97 96 94 80 82 88 89 94 90 86 92 94 88 90 78 86 94 100 100 98 93 72 66 70 71 70 80 80 78 80 82 83 85 83 83 83 84
60 65 64 59 52 56 54 51 18 17 61 91 83 100 95 76 81 90 82 83 69 70 84 91 93 81 93 87 79 80 76 94 94 100 99 90 93 83 82 75 80 83 84 87 84 84 87 87 92 92 89 88 87 86
51 46 51 57 59 49 25 19 29 51 62 82 85 88 65 85 87 85 87 88 61 81 79 89 89 86 98 93 87 95 87 100 100 99 90 90 93 92 87 83 83 88 95 87 87 87 85 89 93 94 91 87 87 89
82 82 40 41 41 36 24 36 48 74 91 89 92 56 70 83 86 78 71 70 57 80 96 94 94 100 90 90 98 94 100 99 95 87 74 76 94 90 88 95 91 94 95 92 91 93 91 89 93 95 99 92 84 84
74 88 65 23 19 27 34 44 59 84 94 89 86 76 59 60 73 70 61 62 74 79 83 96 86 90 98 99 99 98 94 82 70 73 69 70 75 77 83 97 97 96 95 97 93 93 95 96 97 94 88 85 86 84
65 53 45 19 18 28 42 50 59 97 99 88 66 58 63 67 62 61 61 58 59 58 92 93 92 100 98 95 94 85 85 86 92 77 71 67 68 80 93 92 92 91 90 90 94 98 95 97 100 100 98 96 96 90
34 29 20 17 17 40 76 83 68 88 99 90 78 92 85 74 66 69 68 58 69 95 94 98 98 97 97 91 93 92 90 95 91 85 71 68 72 85 85 87 95 98 99 96 92 80 89 97 88 90 90 94 98 92
19 21 20 21 34 48 88 98 98 98 94 96 90 92 94 80 95 92 86 74 91 100 98 93 93 87 87 95 85 95 91 99 96 97 94 92 94 92 85 83 86 93 91 92 94 93 87 90 94 88 92 99 100 100
19 17 19 21 41 50 78 76 97 84 96 96 96 94 99 99 100 100 99 97 100 96 97 96 93 96 91 92 92 94 95 95 92 88 87 92 94 92 92 93 89 89 93 92 90 96 96 92 83 96 95 94 97 97
17 20 27 35 62 70 83 74 88 93 89 94 95 91 98 99 99 86 99 96 94 96 95 92 92 86 82 81 81 78 81 89 96 95 94 95 98 95 88 90 89 91 92 91 90 95 100 86 93 99 100 99 99 99
23 48 86 88 77 86 85 92 94 94 93 94 94 96 97 100 94 95 100 98 84 81 86 91 91 90 85 84 86 82 83 90 96 95 89 94 100 96 96 96 92 89 90 92 95 92 94 97 96 100 100 100 100 100
67 86 82 87 90 84 88 91 90 91 99 98 95 99 99 99 98 99 100 95 86 88 90 95 94 95 96 94 89 88 81 86 99 100 74 78 87 97 94 94 92 89 90 100 100 100 100 99 100 100 100 100 100 100
96 100 97 99 97 94 99 97 100 100 99 98 100 98 98 98 96 100 100 99 93 92 99 100 100 100 94 92 97 98 92 89 97 100 78 75 84 100 100 100 100 96 90 99 100 100 100 100 100 100 100 100 100 100
92 96 95 69 82 83 95 93 93 96 100 100 100 99 95 98 98 92 85 78 92 93 99 97 97 100 100 99 92 89 86 92 99 99 97 95 98 93 85 94 100 92 97 99 100 100 100 100 100 100 100 100 100 100
96 92 98 95 98 95 98 100 100 100 100 95 94 100 100 100 91 92 78 68 78 84 93 94 97 98 98 98 99 99 95 98 98 95 92 92 96 96 97 97 97 100 100 98 100 100 100 100 98 100 100 100 100 98
96 94 91 92 95 99 100 100 100 99 94 99 100 99 98 86 74 68 61 64 76 93 98 98 92 95 94 96 96 96 97 98 100 100 94 90 91 93 99 98 98 97 97 97 96 100 100 100 100 100 100 100 97 98
97 96 93 95 97 100 100 100 99 96 96 98 100 97 93 80 58 54 54 61 82 92 95 96 97 99 100 100 100 94 90 96 98 99 99 96 97 97 96 95 96 95 98 99 98 96 98 99 94 98 99 97 98 99
88 95 93 97 100 100 93 90 90 96 99 98 98 100 98 80 54 41 43 51 63 69 89 98 96 97 99 99 100 100 96 86 99 99 100 99 99 98 94 98 98 98 98 98 98 98 98 98 98 98 98 98 96 100
94 100 94 84 90 89 85 97 97 98 98 97 97 97 88 98 98 46 48 45 55 64 88 98 99 96 97 97 96 96 100 97 97 97 97 98 98 98 98 97 97 97 98 98 97 98 98 98 98 98 99 98 98 99
95 94 94 93 89 88 94 92 86 84 89 92 90 94 97 95 82 43 40 45 52 66 94 96 96 96 95 97 98 99 100 100 100 100 100 100 99 98 97 96 97 97 97 97 97 98 97 98 98 98 98 98 98 98

GFSWCAN_925_rhum_297.txt.gz
RH
100 96 91 87 85 84 83 79 84 81 77 75 72 72 79 86 80 82 78 89 94 98 96 89 92 96 94 94 97 88 81 81 94 98 94 87 96 96 90 94 95 93 98 100 93 100 99 87 87 92 97 94 90 94
95 97 90 87 87 81 84 81 77 79 75 72 71 73 82 78 80 83 85 87 82 93 97 92 98 96 95 96 96 91 91 89 95 95 95 89 90 92 96 99 82 92 98 100 97 97 96 96 96 95 95 94 92 97
98 91 88 83 85 83 79 80 78 75 74 73 70 78 78 79 93 61 87 85 90 78 97 95 96 95 77 92 98 98 93 96 95 96 96 93 95 91 96 97 96 95 96 97 99 98 96 95 90 87 89 89 85 81
92 87 87 85 81 80 79 78 79 76 72 70 73 86 80 94 90 74 70 90 91 91 94 95 88 94 82 92 97 98 80 96 93 88 95 95 92 75 98 94 94 98 90 100 100 94 95 95 93 95 86 81 81 88
90 88 84 82 82 84 85 80 77 75 73 76 86 83 84 93 64 40 40 59 87 99 96 94 88 78 85 77 91 96 96 94 94 94 96 98 93 84 92 86 100 100 100 99 100 98 98 97 97 95 96 100 96 99
87 85 86 86 82 82 82 80 78 76 76 73 88 90 90 99 79 79 96 71 64 92 97 95 88 63 79 86 79 90 94 91 96 96 98 98 95 94 96 100 99 97 97 97 98 97 97 96 97 95 100 97 93 95
87 85 82 81 79 79 80 78 78 77 78 89 91 88 83 71 55 66 78 66 80 88 95 94 93 66 57 89 81 84 68 89 91 96 97 95 94 79 96 100 98 97 96 97 93 93 94 92 96 92 98 94 95 95
79 80 78 78 81 82 81 80 75 82 94 85 81 80 75 66 45 59 54 56 67 56 60 95 82 75 61 84 96 80 92 91 85 96 93 92 79 85 98 99 98 96 91 89 92 91 97 97 98 89 89 93 95 95
78 79 79 80 82 80 76 74 80 94 96 83 58 40 32 35 60 58 60 34 39 58 94 92 97 97 60 62 87 89 84 89 74 89 88 59 79 100 100 100 100 98 99 97 91 78 83 91 92 85 91 84 100 97
78 80 82 83 79 72 68 64 99 97 89 64 42 25 56 37 51 48 29 63 68 66 85 94 64 95 71 69 84 91 94 94 100 99 65 89 100 99 99 98 100 97 95 95 96 88 90 88 91 91 95 92 94 90
78 79 82 82 77 66 58 80 91 76 48 35 35 49 35 43 34 55 83 87 84 96 86 89 80 93 68 98 98 97 98 93 98 96 84 95 99 99 92 90 83 90 73 73 80 74 76 83 89 92 83 80 87 84
76 77 76 85 77 65 69 78 65 46 42 45 34 36 31 57 74 73 92 78 94 100 94 100 90 80 82 92 97 92 96 86 100 79 87 100 99 92 90 89 77 68 68 71 77 73 75 76 76 82 84 84 82 82
68 74 73 80 84 73 59 54 50 46 17 19 37 70 78 85 90 97 100 94 99 96 97 94 93 94 82 78 96 89 94 100 75 93 100 100 97 91 92 82 73 73 74 76 80 78 78 74 77 82 86 84 85 87
67 66 66 68 76 77 69 61 56 16 22 83 81 94 92 99 100 100 100 99 85 95 95 96 100 99 94 90 98 90 91 81 92 98 100 99 98 96 86 80 81 85 83 84 88 91 89 92 92 91 92 92 94 94
64 69 64 54 58 64 65 51 20 22 51 92 84 100 100 90 91 94 92 93 81 86 97 96 95 83 94 85 86 80 82 98 99 100 99 93 91 96 95 89 87 88 91 95 96 96 93 92 93 94 88 90 89 88
50 53 62 66 60 50 28 24 30 45 58 81 86 94 81 94 92 94 96 96 71 91 92 90 92 89 99 94 93 100 94 100 97 99 92 92 96 96 95 92 93 97 98 97 96 95 96 94 94 96 96 88 86 91
66 42 44 45 48 46 30 32 47 77 91 90 94 72 90 97 99 90 91 82 72 90 98 93 98 100 92 96 100 99 100 98 95 90 82 77 89 90 83 88 96 100 100 100 99 99 98 92 94 97 97 86 88 85
52 56 50 35 20 27 36 44 63 87 94 98 93 92 75 72 84 82 74 69 83 89 88 95 87 100 100 100 98 98 94 85 75 78 76 76 83 81 82 98 98 96 97 98 97 96 93 93 99 99 96 94 94 88
64 46 38 21 19 24 38 54 56 99 100 97 86 71 80 71 65 65 61 60 62 68 88 93 98 100 100 98 95 86 85 87 92 84 77 70 68 73 79 94 93 95 97 100 99 98 100 98 99 100 100 99 100 98
50 43 22 16 19 36 72 79 59 84 92 91 86 96 97 88 68 70 69 62 81 95 96 98 100 98 98 91 94 94 93 95 94 88 75 72 81 92 97 92 92 92 98 97 94 82 89 96 87 94 86 86 96 99
19 20 20 22 32 53 94 96 96 100 98 90 98 97 98 87 96 98 96 84 94 100 100 99 97 89 93 94 94 94 97 99 98 97 95 92 92 96 93 94 97 97 93 97 98 94 92 93 96 89 100 99 93 100
20 19 21 22 36 43 70 84 92 83 90 96 93 96 100 100 100 99 98 97 100 99 98 98 94 97 95 92 90 84 82 82 88 92 88 89 97 95 96 97 95 96 99 99 99 98 98 99 97 100 99 100 99 97
17 21 31 36 61 70 80 68 81 95 80 92 94 90 97 98 95 81 99 99 98 86 87 90 92 93 95 86 79 74 76 82 90 97 97 96 96 93 96 100 99 100 98 94 95 99 100 89 93 97 100 95 100 100
25 53 85 88 76 86 88 91 92 92 92 96 99 98 97 100 92 96 100 100 88 81 88 93 97 93 84 82 85 87 87 87 89 90 90 93 99 87 82 96 98 94 94 97 100 100 100 100 96 100 100 100 100 100
71 84 80 87 92 84 94 93 94 93 100 100 97 98 95 99 96 100 100 91 83 83 87 92 91 95 96 90 86 86 90 98 100 100 96 99 100 99 93 94 92 81 81 95 100 100 100 100 100 100 100 100 100 100
100 100 91 100 99 93 99 99 100 100 100 99 100 98 100 97 94 99 92 94 87 92 96 97 97 95 90 96 98 97 98 100 100 100 94 98 100 100 100 100 100 90 80 90 100 100 100 100 100 100 100 100 100 100
95 97 97 76 90 87 94 96 94 97 100 100 100 100 96 96 97 81 83 68 90 97 99 98 100 100 99 99 99 98 98 98 99 99 97 97 98 99 100 100 100 91 96 98 99 100 100 100 100 100 100 100 100 100
99 96 91 92 96 96 98 100 100 100 100 96 95 99 99 99 94 78 61 64 84 95 95 95 96 97 98 98 99 99 96 98 96 93 86 84 92 96 95 96 97 99 100 99 99 98 100 100 100 99 100 100 100 100
92 94 92 92 95 99 100 100 100 99 96 100 100 97 91 80 67 56 50 57 77 89 98 98 95 95 97 99 97 96 97 98 100 97 92 89 92 92 98 97 97 97 97 97 97 100 100 99 98 98 99 99 98 99
88 97 90 99 95 93 96 99 96 95 94 96 98 96 88 75 44 41 49 58 77 89 89 95 97 100 100 100 100 91 87 95 97 98 96 94 95 94 95 98 98 97 98 98 97 94 95 98 94 96 97 97 97 97
92 93 89 98 93 98 92 89 91 96 98 98 99 100 94 76 51 42 52 58 73 81 93 97 94 96 98 99 100 100 94 89 100 100 100 100 98 97 96 97 97 97 97 98 97 97 97 97 98 98 98 98 98 100
93 100 90 75 83 89 89 94 98 98 99 99 95 100 92 96 94 46 55 48 65 74 90 98 99 98 91 95 96 100 100 100 100 100 99 96 98 97 97 96 95 96 97 97 97 98 98 98 98 98 98 98 98 98
95 94 96 92 86 80 92 89 84 80 88 91 90 96 98 93 77 43 42 54 67 80 94 98 89 84 87 92 96 100 100 99 98 99 100 99 100 99 98 97 97 97 98 99 99 98 97 97 98 98 98 98 98 97

GFSWCAN_925_rhum_300.txt.gz
RH
100 99 99 100 95 91 90 82 86 81 78 77 73 73 83 83 84 83 96 96 89 98 96 96 97 98 95 92 96 87 78 75 96 96 97 93 99 95 92 94 96 93 97 95 95 98 98 86 86 93 97 95 90 90
100 100 100 99 97 87 85 82 79 80 76 74 73 72 84 78 80 80 86 84 79 89 98 90 95 92 94 95 98 93 92 93 96 95 94 90 90 90 97 96 90 95 98 96 99 98 96 96 97 96 96 94 90 91
100 99 99 91 90 85 81 83 78 76 77 75 71 82 82 90 89 69 80 76 79 93 96 91 95 87 82 93 98 98 90 96 96 96 96 95 98 89 96 96 96 93 89 97 94 97 99 97 89 88 90 92 87 80
97 91 91 87 84 82 80 81 81 76 75 72 82 85 90 94 98 58 74 98 86 92 93 96 95 94 79 90 96 98 95 95 93 92 95 96 94 82 96 93 92 98 89 100 100 93 95 95 93 95 86 77 79 88
92 88 86 85 88 87 83 80 80 77 76 81 86 83 94 74 45 42 49 77 89 90 97 96 88 77 85 67 84 92 96 94 94 96 95 98 94 84 86 83 98 99 100 99 99 97 98 96 96 95 94 93 94 99
89 90 86 85 84 82 81 80 79 77 74 81 92 88 92 82 77 86 88 56 81 84 96 96 93 57 57 91 67 75 93 91 95 96 98 98 94 87 96 100 98 98 97 98 99 96 97 96 97 97 98 97 96 97
85 83 81 81 81 81 81 80 79 76 92 88 95 94 92 80 47 66 79 70 87 81 95 94 94 65 55 73 83 78 64 93 93 98 98 93 89 75 95 99 97 97 97 97 97 96 92 94 97 96 98 95 98 96
83 81 81 83 83 83 83 79 77 97 83 82 76 70 65 55 51 67 53 51 50 47 59 95 81 66 55 81 94 83 91 90 85 98 92 87 76 82 98 98 98 95 92 93 94 90 96 94 86 82 83 95 95 97
82 83 83 82 80 74 74 75 88 98 92 76 62 28 23 38 53 60 59 29 33 52 92 91 97 97 55 60 84 89 84 92 76 87 85 59 79 100 100 100 99 99 99 97 94 82 84 93 91 88 91 90 100 95
83 84 83 77 72 69 89 84 98 96 60 46 28 22 64 61 54 32 28 59 67 69 83 97 67 95 75 73 89 89 96 96 100 97 68 92 100 98 98 97 97 97 98 92 95 86 88 86 92 94 97 91 90 98
80 86 81 72 72 82 93 98 96 75 47 26 33 53 36 31 30 54 84 90 85 96 90 92 91 95 70 99 100 98 99 94 99 96 84 97 99 98 91 91 77 75 74 75 90 84 76 83 91 90 88 88 88 87
77 81 80 72 67 79 86 74 56 49 42 37 30 31 29 56 74 74 93 78 93 100 94 100 95 82 90 90 97 90 95 87 100 85 88 100 94 93 95 91 81 76 78 78 78 81 80 77 78 81 86 88 88 89
74 76 82 82 71 68 69 63 49 25 15 18 36 71 78 86 92 98 100 93 99 94 96 98 97 97 84 76 94 91 95 100 78 96 100 99 96 88 94 91 86 80 80 84 84 84 90 88 87 91 94 94 95 98
66 65 73 78 85 77 70 62 16 13 20 81 82 94 93 99 99 100 100 98 85 96 94 98 100 99 94 87 99 82 88 85 94 100 100 97 89 89 93 89 93 91 91 92 94 93 98 98 98 93 94 92 96 100
72 67 62 69 73 72 70 30 16 18 49 91 84 100 100 92 92 95 91 94 86 89 94 97 94 83 94 86 87 82 83 99 98 99 96 92 90 95 94 91 94 93 96 100 98 100 99 97 99 97 90 93 94 92
60 68 65 58 49 45 32 22 25 40 56 82 91 96 85 93 95 96 99 98 78 96 92 84 89 92 98 97 94 100 93 100 95 98 91 92 92 93 93 96 95 97 100 100 100 99 100 100 100 100 97 90 85 89
48 50 55 53 49 34 24 33 49 74 91 87 100 81 92 98 100 98 98 89 79 90 100 94 97 100 93 97 100 100 100 97 92 89 78 81 88 89 97 89 95 100 100 100 100 98 100 98 98 100 100 86 88 90
53 52 48 28 20 28 34 44 58 84 94 99 94 93 84 82 92 89 73 70 88 92 88 98 88 100 100 100 98 97 90 85 75 76 80 78 83 82 77 87 97 100 100 100 98 100 94 97 100 100 99 98 100 95
54 45 37 18 18 24 41 49 54 99 100 98 89 74 84 77 62 64 62 63 67 71 89 94 99 100 100 100 97 87 84 85 92 84 81 78 73 74 84 95 97 98 97 99 98 99 99 96 100 98 96 89 90 97
49 47 21 18 18 33 69 78 55 80 87 90 86 94 98 95 79 77 74 77 83 95 97 99 100 99 99 90 89 93 91 92 96 92 80 73 81 86 96 95 96 96 100 100 97 89 91 98 93 92 93 95 94 92
21 21 21 23 33 51 85 96 97 100 98 92 98 94 91 86 95 99 99 88 95 100 100 100 99 90 91 97 97 98 98 100 100 98 94 95 88 87 85 88 96 100 100 100 100 100 96 97 96 94 100 100 96 100
22 22 23 22 36 44 73 77 88 81 90 95 97 96 100 99 100 98 99 98 100 98 98 98 93 96 93 94 94 95 93 90 87 90 84 89 97 87 84 85 93 99 100 100 100 100 100 100 99 100 100 100 97 93
21 26 36 37 63 72 81 68 83 94 80 89 94 87 95 99 94 84 97 98 94 94 96 98 97 98 99 97 97 96 98 99 100 99 99 100 100 100 100 99 97 99 98 97 96 100 100 97 95 95 100 97 96 100
28 54 87 88 76 85 86 91 93 91 93 96 100 97 94 100 94 96 99 96 95 96 96 96 98 93 84 82 89 94 98 100 100 100 100 100 98 96 100 100 100 100 100 100 100 100 100 100 98 100 99 100 100 100
71 85 78 85 93 84 93 93 94 93 100 100 96 96 96 98 95 98 97 93 83 84 87 91 92 95 95 89 86 89 94 99 100 99 94 100 100 100 95 93 98 98 98 100 100 100 100 100 100 100 100 100 100 97
98 98 89 100 98 90 99 99 100 100 100 98 100 98 99 96 96 98 96 92 93 93 94 95 95 93 90 96 96 96 97 98 100 100 93 99 100 100 100 100 98 88 85 97 100 100 100 100 100 100 100 98 99 100
91 95 95 78 93 87 94 96 95 97 100 100 100 100 96 100 98 90 76 83 95 97 98 98 99 99 98 97 98 97 97 97 98 98 97 97 97 98 99 100 99 95 99 100 100 100 100 100 100 99 99 100 100 100
100 97 88 92 97 96 99 100 100 100 100 96 95 96 100 98 95 89 92 90 94 95 94 95 96 97 98 96 96 98 99 100 100 98 94 94 95 95 96 96 97 100 99 98 99 99 99 100 100 100 100 100 100 100
93 95 93 91 95 98 100 98 99 98 94 99 100 94 91 86 78 70 70 71 85 94 100 99 94 97 100 99 96 96 96 97 100 91 89 85 84 82 90 99 97 97 97 96 95 100 99 98 98 98 98 98 98 98
88 99 90 99 89 85 92 98 96 94 94 96 96 94 87 72 46 49 70 75 88 95 94 96 100 99 100 100 100 95 91 93 97 98 96 93 94 97 97 97 97 97 97 98 98 95 97 97 95 95 96 96 98 99
90 92 86 98 85 95 95 93 93 97 98 100 100 100 93 73 51 51 64 65 83 88 94 98 98 98 100 100 100 100 95 89 100 100 100 99 97 97 97 97 96 97 97 97 97 97 97 98 99 99 99 98 98 98
93 100 89 68 80 88 88 93 98 98 98 100 94 100 96 96 88 46 50 54 77 91 98 99 100 90 90 94 97 100 100 100 100 100 98 97 96 97 97 96 96 97 99 100 98 99 100 100 99 98 99 98 98 98
93 94 95 90 83 77 91 89 83 80 87 89 89 96 98 91 76 46 46 56 76 86 89 95 85 83 86 86 92 97 93 79 87 99 100 100 99 99 97 96 98 97 97 98 97 97 96 97 97 98 99 99 100 100

GFSWCAN_925_rhum_303.txt.gz
RH
100 100 100 100 100 100 100 98 93 94 85 79 75 74 87 83 86 80 100 97 80 98 96 95 96 98 95 94 98 87 80 78 95 98 98 92 98 99 93 98 99 98 98 96 94 99 99 87 82 91 94 97 94 89
98 99 99 100 98 99 97 98 88 81 78 74 74 74 85 80 87 79 90 84 80 82 97 92 88 89 97 96 96 93 90 97 91 97 95 95 90 92 100 100 88 94 99 100 99 98 97 97 98 97 97 98 93 93
100 100 100 99 98 97 86 84 82 77 77 76 72 86 85 92 94 72 85 86 77 91 96 91 94 87 76 95 98 98 90 95 96 97 96 94 96 93 99 99 97 91 94 96 97 94 98 98 86 89 93 98 87 83
100 98 97 93 85 85 82 81 81 77 75 73 85 90 92 98 70 54 70 94 83 80 92 96 80 84 75 77 93 97 96 89 95 92 96 95 95 78 98 96 90 97 90 100 98 91 91 97 95 97 87 81 81 84
97 89 86 85 87 89 86 82 81 76 78 87 84 94 85 75 50 43 56 86 93 74 97 96 86 57 72 70 70 85 95 94 94 96 96 98 94 85 95 87 98 99 100 99 98 97 99 94 96 95 94 91 92 93
92 90 87 86 86 84 82 79 78 79 75 84 84 88 80 80 81 79 70 50 87 94 92 98 79 62 52 78 62 66 80 92 96 96 98 98 96 90 98 99 97 98 96 99 100 98 98 95 97 97 100 94 93 98
84 83 83 83 82 81 80 80 76 85 95 100 99 98 86 68 41 66 80 72 87 86 94 97 91 51 53 64 83 77 62 95 95 97 97 96 93 78 97 99 94 96 97 98 98 98 91 93 98 95 94 90 98 93
83 83 83 84 84 83 82 76 98 83 88 90 82 72 67 61 63 61 53 64 50 45 55 94 81 66 54 80 96 84 92 90 86 97 90 90 79 84 98 97 97 95 92 93 94 95 96 97 94 87 87 91 96 95
83 83 81 76 74 74 75 88 91 77 75 74 54 25 24 48 61 64 55 26 32 48 93 92 99 99 58 64 86 90 92 92 76 84 87 60 79 100 99 100 98 96 100 98 97 91 84 93 92 89 92 94 100 97
82 79 74 72 71 75 74 95 98 75 62 42 15 24 67 55 55 29 27 58 68 71 83 98 77 100 80 81 93 90 94 96 100 97 64 91 100 96 97 98 97 95 96 96 99 88 88 85 86 93 98 95 95 97
78 75 76 82 95 99 87 98 74 59 40 17 35 58 31 26 29 52 84 90 85 93 89 97 97 99 69 100 100 98 98 94 99 96 83 98 99 96 91 97 85 81 82 84 85 90 92 91 95 92 88 88 89 91
78 73 72 87 94 94 92 79 68 41 39 35 28 29 29 56 74 72 92 76 92 100 93 100 96 89 90 83 96 91 93 88 100 88 89 100 90 84 96 96 90 85 88 89 85 88 87 88 91 94 94 95 95 97
78 74 70 73 75 74 71 60 30 17 15 18 35 71 78 86 92 98 100 93 99 89 95 98 97 97 87 74 92 91 91 100 78 98 100 92 93 84 92 93 90 90 89 91 94 93 91 92 92 95 97 96 95 100
78 78 79 75 76 75 68 52 14 14 19 81 80 93 95 100 100 100 100 99 86 99 97 100 100 98 94 87 99 77 87 85 93 100 96 93 86 87 94 90 94 92 96 97 98 97 98 100 100 96 97 96 98 100
67 74 77 77 74 70 43 14 14 16 48 90 85 100 100 95 90 96 92 95 85 93 96 98 93 84 93 87 88 82 81 97 96 92 91 92 89 94 93 85 92 94 94 100 98 100 100 100 100 100 94 96 98 99
68 62 58 55 53 48 27 17 21 39 59 86 92 96 87 92 94 96 99 100 84 98 91 85 90 89 96 98 91 100 91 98 90 93 85 84 87 92 93 89 94 98 98 100 100 100 100 100 100 100 100 94 90 91
53 58 56 52 27 19 21 32 47 73 91 90 100 83 98 100 100 99 99 93 83 90 98 94 92 100 93 94 97 98 100 92 86 87 77 79 86 85 88 93 94 90 99 100 98 100 100 100 98 100 100 87 86 91
49 44 43 19 18 22 31 45 60 82 95 100 93 95 89 84 95 91 76 73 91 94 87 96 88 100 100 100 93 91 98 81 76 76 75 77 83 87 86 85 89 98 100 100 100 100 98 97 100 98 95 98 100 94
50 43 39 17 16 24 35 44 51 99 100 99 90 83 89 79 66 70 70 73 70 70 88 94 99 100 99 96 100 85 83 84 90 83 81 81 82 79 79 86 96 99 94 99 100 100 100 99 98 100 100 98 100 93
56 38 18 18 18 32 68 77 54 79 84 89 86 93 98 94 81 78 77 82 84 95 97 98 100 95 99 84 81 87 87 88 92 90 77 67 69 79 87 92 94 88 92 97 100 94 97 98 96 88 89 95 98 97
18 19 17 20 34 46 83 97 96 100 98 92 98 93 91 86 94 96 98 91 96 100 99 92 96 84 86 97 100 100 97 98 94 93 90 90 82 95 96 95 95 98 99 99 100 100 96 100 96 97 100 100 100 100
22 21 20 20 38 47 74 76 87 79 90 96 95 94 99 96 98 97 98 99 100 97 96 96 92 95 93 94 96 100 99 100 100 100 95 98 97 90 90 92 98 96 96 96 99 98 97 99 100 100 100 100 96 100
22 28 35 37 62 70 79 65 82 94 81 89 94 86 94 99 95 86 94 98 94 94 96 97 96 97 98 96 98 97 98 99 98 97 97 98 98 99 100 98 98 99 96 92 94 100 100 99 99 99 95 97 100 100
26 52 85 86 77 85 86 92 93 91 93 95 99 94 91 100 95 97 97 95 94 94 94 95 96 91 81 82 91 94 97 100 99 97 98 100 96 94 99 100 100 100 100 100 100 100 100 100 99 100 99 100 100 100
68 86 79 85 93 84 92 93 94 92 100 100 96 95 96 98 97 97 96 93 84 81 89 92 92 95 94 89 85 89 96 98 99 98 92 96 100 100 94 92 93 95 98 100 100 100 99 100 100 100 100 100 99 99
95 98 90 100 96 90 99 99 100 100 100 99 100 98 99 97 99 97 95 95 94 94 94 95 95 93 90 96 96 95 96 97 98 98 94 98 99 100 98 97 95 90 95 98 100 100 100 99 99 99 99 98 97 96
82 93 94 78 93 87 94 96 95 96 100 100 100 99 100 100 96 93 89 94 95 96 97 98 100 100 97 97 98 96 97 96 97 97 96 96 96 97 99 99 97 94 99 99 100 100 100 100 100 100 100 99 99 99
99 97 88 90 96 96 97 100 100 100 100 94 94 95 100 98 95 94 95 94 96 95 94 94 98 100 100 95 96 100 99 98 100 91 82 80 85 93 95 97 97 97 98 96 97 97 97 98 98 98 99 99 99 97
94 95 94 88 91 97 99 94 95 96 93 97 97 93 93 92 91 91 90 93 95 96 100 98 94 100 99 99 96 97 99 98 100 90 88 86 84 81 94 98 97 97 97 97 100 99 97 97 97 97 97 98 97 96
87 100 87 96 79 73 88 95 96 94 92 96 95 93 86 71 50 49 68 88 94 96 97 94 100 99 100 100 100 94 89 93 100 100 95 93 95 97 98 96 96 96 96 98 99 98 100 96 95 93 96 99 100 100
90 92 81 96 80 91 96 98 95 97 98 100 99 99 91 73 48 50 66 72 93 94 94 98 96 94 100 100 100 100 97 90 100 99 99 100 99 97 97 96 96 96 97 97 98 100 99 99 100 99 98 98 98 98
93 100 86 60 75 87 84 94 98 97 97 100 94 100 94 97 85 47 52 53 77 89 95 97 99 93 88 90 93 98 100 98 97 100 100 100 100 99 96 96 96 97 96 99 100 100 100 100 100 100 99 98 100 99
92 95 94 89 81 73 90 88 82 78 87 86 88 94 98 90 74 49 46 52 74 94 95 95 86 81 82 79 82 85 85 74 76 90 100 99 96 96 97 100 98 96 97 97 100 100 100 100 100 100 99 100 100 100